Location: Oshawa
(43.9000°N, 78.8670°W)
Time: 21:04:23
(UTC-04:00)

Amateur Radio Satellites - All Passes

Search period start: 25 July 2014 20:34
Search period end: 26 July 2014 20:34
Location: Oshawa, 43.9000°N, 78.8670°W

Satellite Date Start Highest point End Downlink Frequencies (MHz)
Time Altitude Azimuth
HO-68 25 Jul 20:44:01 20:50:52 51° 66° (ENE) 20:57:44 435.675 MHz FM
UKube-1 25 Jul 20:55:28 20:59:15 30° 67° (ENE) 21:03:04 145.840 MHz, 145.915 MHz
JAS-2 25 Jul 20:57:02 21:00:00 12° 276° (W) 21:02:56 435.800 - 435.900 CW/SSB, 435.910 FM
SO-50 25 Jul 21:17:00 21:20:38 21° 39° (NE) 21:24:18 436.795 FM
Oscar 11 25 Jul 21:44:18 21:48:24 45° 72° (ENE) 21:52:32 145.825 FM, Beacon 2401.500 USB
MaSat-1 25 Jul 21:47:15 21:50:06 19° 102° (ESE) 21:53:15 437.345 MHz
STRAND 1 25 Jul 21:49:55 21:52:47 15° 302° (WNW) 21:55:39 ?
FUNcube-1 25 Jul 21:56:20 21:59:47 24° 67° (ENE) 22:03:12 145.950 - 145.970 MHz USB
RS-15 25 Jul 22:10:47 22:21:18 47° 40° (NE) 22:32:06 29.354 - 29.394 USB, Beacon 29.352 USB
UKube-1 25 Jul 22:31:42 22:35:26 27° 264° (W) 22:39:12 145.840 MHz, 145.915 MHz
HO-68 25 Jul 22:32:25 22:38:46 34° 264° (W) 22:45:10 435.675 MHz FM
SO-50 25 Jul 22:56:55 23:01:39 68° 239° (WSW) 23:06:25 436.795 FM
Lituanica SAT-1 25 Jul 23:17:28 23:18:18 12° 136° (SE) 23:19:08 437.275 MHz beacon
Oscar 11 25 Jul 23:21:59 23:24:50 17° 268° (W) 23:27:41 145.825 FM, Beacon 2401.500 USB
MaSat-1 25 Jul 23:23:02 23:26:58 45° 304° (NW) 23:31:32 437.345 MHz
FUNcube-1 25 Jul 23:32:05 23:36:03 33° 263° (W) 23:39:57 145.950 - 145.970 MHz USB
UOSAT-12 25 Jul 23:37:46 23:42:01 32° 45° (NE) 23:46:14 437.025 FM, 437.400 FM
RS-15 26 Jul 00:23:20 00:34:06 62° 245° (WSW) 00:45:16 29.354 - 29.394 USB, Beacon 29.352 USB
Sapphire 26 Jul 00:37:56 00:38:55 11° 101° (E) 00:39:55 437.095 MHz 1200 baud AX-25 AFSK
Lituanica SAT-1 26 Jul 00:48:34 00:50:31 40° 333° (NNW) 00:52:29 437.275 MHz beacon
PCSat 26 Jul 01:08:06 01:12:15 23° 107° (ESE) 01:16:26 145.825 MHz
UOSAT-12 26 Jul 01:17:51 01:22:15 38° 243° (WSW) 01:26:34 437.025 FM, 437.400 FM
ISS 26 Jul 01:20:17 01:23:28 42° 141° (SE) 01:26:40 145.800 FM
Oscar 16 26 Jul 01:35:08 01:37:48 14° 89° (E) 01:40:27 437.025 USB, Beacon 2401.1428
AO-27 26 Jul 02:07:33 02:09:40 12° 88° (E) 02:11:46 436.795 MHz FM
Uribyol 2 26 Jul 02:09:17 02:11:47 14° 89° (E) 02:14:16 436.500 FM
Sapphire 26 Jul 02:16:00 02:21:23 78° 119° (ESE) 02:26:50 437.095 MHz 1200 baud AX-25 AFSK
Lituanica SAT-1 26 Jul 02:22:35 02:23:23 12° 351° (N) 02:24:11 437.275 MHz beacon
JAS-1B 26 Jul 02:29:27 02:36:21 22° 84° (E) 02:42:36 435.800 - 435.900 CW/SSB
RS-15 26 Jul 02:40:13 02:44:02 12° 266° (W) 02:47:54 29.354 - 29.394 USB, Beacon 29.352 USB
Oscar 19 26 Jul 02:44:46 02:49:52 60° 101° (E) 02:54:58 437.125 CW, 437.150 USB
PCSat 26 Jul 02:49:58 02:55:16 55° 306° (NW) 03:00:37 145.825 MHz
AO-40 26 Jul 02:50:38 04:30:49 22° 218° (SW) 07:36:41 Beacon 2401.320
ISS 26 Jul 02:57:06 03:00:14 36° 339° (NNW) 03:03:23 145.800 FM
Oscar 16 26 Jul 03:12:33 03:17:42 75° 286° (WNW) 03:22:51 437.025 USB, Beacon 2401.1428
ITAMSAT 1 26 Jul 03:26:18 03:31:29 66° 102° (ESE) 03:36:37 435.822 SSB
TMSAT-1 26 Jul 03:26:35 03:30:35 21° 92° (E) 03:34:33 436.925 FM
AO-Echo 26 Jul 03:28:01 03:33:11 74° 102° (ESE) 03:38:08 ?
OPAL 26 Jul 03:30:35 03:35:01 34° 65° (ENE) 03:39:27 ?
AO-27 26 Jul 03:44:37 03:49:50 84° 285° (WNW) 03:55:01 436.795 MHz FM
Uribyol 2 26 Jul 03:46:40 03:51:51 78° 286° (WNW) 03:57:00 436.500 FM
Gurwin Techsat 1B 26 Jul 03:48:01 03:53:07 45° 99° (E) 03:58:10 435.225 FM
Lituanica SAT-1 26 Jul 03:55:30 03:56:28 12° 11° (N) 03:57:26 437.275 MHz beacon
AO-7 26 Jul 04:00:25 04:04:34 14° 87° (E) 04:08:41 29.400 - 29.500 MHz
Sapphire 26 Jul 04:01:24 04:05:27 21° 319° (NW) 04:09:31 437.095 MHz 1200 baud AX-25 AFSK
JAS-1B 26 Jul 04:18:27 04:28:11 89° 286° (WNW) 04:36:35 435.800 - 435.900 CW/SSB
Oscar 19 26 Jul 04:25:08 04:28:46 20° 299° (WNW) 04:32:24 437.125 CW, 437.150 USB
ISS 26 Jul 04:34:57 04:37:37 21° 359° (N) 04:40:16 145.800 FM
PCSat 26 Jul 04:37:26 04:39:57 13° 328° (NNW) 04:42:28 145.825 MHz
Oscar 16 26 Jul 04:54:43 04:56:11 11° 304° (NW) 04:57:38 437.025 USB, Beacon 2401.1428
TMSAT-1 26 Jul 05:05:40 05:10:48 52° 289° (WNW) 05:15:55 436.925 FM
ITAMSAT 1 26 Jul 05:07:02 05:10:27 18° 300° (WNW) 05:13:52 435.822 SSB
AO-Echo 26 Jul 05:08:15 05:11:18 16° 301° (WNW) 05:14:17 ?
OPAL 26 Jul 05:09:35 05:13:54 30° 262° (W) 05:18:16 ?
Uosat F 26 Jul 05:22:02 05:26:59 55° 101° (E) 05:31:53 435.120 FM
AO-27 26 Jul 05:26:22 05:28:32 13° 304° (WNW) 05:30:42 436.795 MHz FM
Lituanica SAT-1 26 Jul 05:27:15 05:29:14 54° 29° (NNE) 05:31:13 437.275 MHz beacon
Gurwin Techsat 1B 26 Jul 05:28:30 05:32:50 26° 296° (WNW) 05:37:09 435.225 FM
Uribyol 2 26 Jul 05:28:46 05:30:27 12° 304° (NW) 05:32:09 436.500 FM
STRAND 1 26 Jul 05:49:26 05:52:54 19° 61° (ENE) 05:56:23 ?
AO-7 26 Jul 05:50:22 05:58:44 74° 106° (ESE) 06:07:01 29.400 - 29.500 MHz
MaSat-1 26 Jul 06:03:48 06:06:32 14° 40° (NE) 06:09:15 437.345 MHz
Oscar 10/S400 26 Jul 06:06:36 07:22:54 36° 238° (WSW) 11:39:07 145.825 - 145.975 CW/USB, Beacon 145.810 USB
JAS-1B 26 Jul 06:09:57 06:17:19 26° 308° (NW) 06:24:08 435.800 - 435.900 CW/SSB
ISS 26 Jul 06:11:54 06:15:01 33° 19° (NNE) 06:18:07 145.800 FM
JAS-2 26 Jul 06:17:17 06:20:48 16° 86° (E) 06:24:07 435.800 - 435.900 CW/SSB, 435.910 FM
KITSAT 1 26 Jul 06:34:42 06:41:45 34° 108° (ESE) 06:48:49 435.175 FM
Hamsat 26 Jul 06:41:36 06:45:23 29° 96° (E) 06:49:10 145.90 MHz
Uosat F 26 Jul 07:01:46 07:05:22 20° 298° (WNW) 07:08:58 435.120 FM
STRAND 1 26 Jul 07:26:29 07:31:36 64° 258° (WSW) 07:36:44 ?
MaSat-1 26 Jul 07:39:37 07:44:56 66° 60° (ENE) 07:50:03 437.345 MHz
AO-7 26 Jul 07:44:01 07:50:49 29° 306° (NW) 07:57:35 29.400 - 29.500 MHz
SO-67 26 Jul 07:45:56 07:48:39 21° 94° (E) 07:51:21 435.3500 MHz FM
ISS 26 Jul 07:48:34 07:51:51 49° 218° (SW) 07:55:06 145.800 FM
JAS-2 26 Jul 08:00:34 08:06:48 75° 287° (WNW) 08:12:18 435.800 - 435.900 CW/SSB, 435.910 FM
Hamsat 26 Jul 08:17:40 08:21:16 26° 292° (WNW) 08:24:51 145.90 MHz
KITSAT 1 26 Jul 08:28:45 08:36:45 61° 308° (NW) 08:44:47 435.175 FM
Saudisat 1A 26 Jul 09:08:51 09:13:16 78° 123° (ESE) 09:17:42 436.775 MHz
MaSat-1 26 Jul 09:18:10 09:21:45 19° 259° (WSW) 09:25:13 437.345 MHz
SO-67 26 Jul 09:18:51 09:21:41 23° 291° (WNW) 09:24:30 435.3500 MHz FM
Sapphire 26 Jul 09:20:17 09:23:52 18° 38° (NE) 09:27:26 437.095 MHz 1200 baud AX-25 AFSK
JAS-2 26 Jul 09:47:56 09:50:37 13° 309° (NW) 09:53:11 435.800 - 435.900 CW/SSB, 435.910 FM
PCSat 26 Jul 09:53:29 09:58:12 29° 46° (NE) 10:02:52 145.825 MHz
HO-68 26 Jul 09:57:30 10:04:19 45° 99° (E) 10:11:05 435.675 MHz FM
UKube-1 26 Jul 10:17:57 10:22:08 44° 99° (E) 10:26:16 145.840 MHz, 145.915 MHz
KITSAT 1 26 Jul 10:28:07 10:34:00 21° 334° (NNW) 10:39:54 435.175 FM
Saudisat 1A 26 Jul 10:50:20 10:53:23 18° 322° (NW) 10:56:26 436.775 MHz
Sapphire 26 Jul 11:02:41 11:08:09 82° 59° (ENE) 11:13:34 437.095 MHz 1200 baud AX-25 AFSK
Oscar 11 26 Jul 11:06:22 11:10:43 78° 103° (ESE) 11:15:03 145.825 FM, Beacon 2401.500 USB
FUNcube-1 26 Jul 11:19:29 11:23:24 38° 98° (E) 11:27:19 145.950 - 145.970 MHz USB
PCSat 26 Jul 11:36:37 11:41:52 51° 246° (WSW) 11:47:05 145.825 MHz
HO-68 26 Jul 11:45:26 11:51:55 39° 298° (WNW) 11:58:21 435.675 MHz FM
UKube-1 26 Jul 11:54:55 11:58:02 20° 296° (WNW) 12:01:08 145.840 MHz, 145.915 MHz
Oscar 19 26 Jul 12:26:57 12:29:34 14° 58° (ENE) 12:32:11 437.125 CW, 437.150 USB
KITSAT 1 26 Jul 12:28:58 12:33:09 15° 4° (N) 12:37:20 435.175 FM
RS-15 26 Jul 12:41:00 12:47:54 19° 99° (E) 12:54:41 29.354 - 29.394 USB, Beacon 29.352 USB
Oscar 11 26 Jul 12:44:45 12:46:17 12° 300° (WNW) 12:47:49 145.825 FM, Beacon 2401.500 USB
Sapphire 26 Jul 12:47:58 12:50:50 15° 257° (WSW) 12:53:43 437.095 MHz 1200 baud AX-25 AFSK
Oscar 16 26 Jul 12:53:00 12:57:06 25° 64° (ENE) 13:01:12 437.025 USB, Beacon 2401.1428
FUNcube-1 26 Jul 12:56:34 12:59:34 20° 295° (WNW) 13:02:35 145.950 - 145.970 MHz USB
AO-Echo 26 Jul 13:05:45 13:08:58 17° 59° (ENE) 13:12:11 ?
ITAMSAT 1 26 Jul 13:08:48 13:12:03 17° 59° (ENE) 13:15:18 435.822 SSB
SO-50 26 Jul 13:13:50 13:17:37 28° 114° (ESE) 13:21:28 436.795 FM
JAS-1B 26 Jul 13:14:43 13:21:40 25° 51° (NE) 13:29:02 435.800 - 435.900 CW/SSB
AO-27 26 Jul 13:26:11 13:30:17 24° 63° (ENE) 13:34:23 436.795 MHz FM
Uribyol 2 26 Jul 13:27:51 13:32:03 25° 64° (ENE) 13:36:15 436.500 FM
Gurwin Techsat 1B 26 Jul 13:34:34 13:36:39 12° 56° (NE) 13:38:45 435.225 FM
Oscar 19 26 Jul 14:03:05 14:08:12 84° 256° (WSW) 14:13:21 437.125 CW, 437.150 USB
KITSAT 1 26 Jul 14:25:15 14:31:55 27° 34° (NE) 14:38:33 435.175 FM
Oscar 16 26 Jul 14:31:19 14:36:11 45° 261° (W) 14:41:06 437.025 USB, Beacon 2401.1428
AO-Echo 26 Jul 14:41:47 14:47:04 78° 257° (WSW) 14:52:26 ?
ITAMSAT 1 26 Jul 14:45:45 14:50:58 73° 257° (WSW) 14:56:12 435.822 SSB
RS-15 26 Jul 14:47:17 14:58:23 79° 120° (ESE) 15:09:18 29.354 - 29.394 USB, Beacon 29.352 USB
TMSAT-1 26 Jul 14:48:28 14:53:19 38° 68° (ENE) 14:58:12 436.925 FM
SO-50 26 Jul 14:53:50 14:58:01 38° 313° (NW) 15:02:19 436.795 FM
AO-7 26 Jul 15:00:15 15:06:56 28° 53° (NE) 15:13:36 29.400 - 29.500 MHz
Uosat F 26 Jul 15:01:25 15:03:36 13° 57° (ENE) 15:05:48 435.120 FM
JAS-1B 26 Jul 15:01:56 15:10:42 85° 73° (ENE) 15:20:36 435.800 - 435.900 CW/SSB
AO-27 26 Jul 15:04:27 15:09:29 49° 260° (W) 15:14:34 436.795 MHz FM
Uribyol 2 26 Jul 15:06:18 15:11:16 45° 261° (W) 15:16:16 436.500 FM
Gurwin Techsat 1B 26 Jul 15:10:27 15:15:45 80° 74° (ENE) 15:21:06 435.225 FM
UOSAT-12 26 Jul 15:29:55 15:34:18 46° 118° (ESE) 15:38:47 437.025 FM, 437.400 FM
Oscar 19 26 Jul 15:48:00 15:48:19 10° 273° (W) 15:48:38 437.125 CW, 437.150 USB
Saudisat 1A 26 Jul 15:55:52 15:58:39 16° 36° (NE) 16:01:25 436.775 MHz
KITSAT 1 26 Jul 16:20:23 16:28:31 85° 58° (ENE) 16:36:36 435.175 FM
TMSAT-1 26 Jul 16:28:43 16:33:18 30° 265° (W) 16:37:55 436.925 FM
JAS-2 26 Jul 16:31:47 16:35:17 14° 52° (NE) 16:38:42 435.800 - 435.900 CW/SSB, 435.910 FM
Uosat F 26 Jul 16:36:35 16:41:38 88° 76° (ENE) 16:46:43 435.120 FM
AO-7 26 Jul 16:50:33 16:58:55 78° 253° (WSW) 17:07:21 29.400 - 29.500 MHz
Gurwin Techsat 1B 26 Jul 16:53:44 16:56:21 14° 272° (W) 16:58:58 435.225 FM
JAS-1B 26 Jul 16:55:28 17:02:20 25° 274° (W) 17:09:51 435.800 - 435.900 CW/SSB
RS-15 26 Jul 17:01:47 17:11:51 39° 326° (NNW) 17:21:54 29.354 - 29.394 USB, Beacon 29.352 USB
UOSAT-12 26 Jul 17:10:41 17:14:39 27° 318° (NW) 17:18:41 437.025 FM, 437.400 FM
OPAL 26 Jul 17:16:59 17:22:00 60° 104° (ESE) 17:27:02 ?
Saudisat 1A 26 Jul 17:34:26 17:38:52 89° 230° (SW) 17:43:16 436.775 MHz
Hamsat 26 Jul 17:36:43 17:40:09 25° 68° (ENE) 17:43:36 145.90 MHz
JAS-2 26 Jul 18:11:21 18:19:01 60° 70° (ENE) 18:26:14 435.800 - 435.900 CW/SSB, 435.910 FM
KITSAT 1 26 Jul 18:17:13 18:22:56 22° 257° (WSW) 18:28:37 435.175 FM
Uosat F 26 Jul 18:19:34 18:21:06 11° 272° (W) 18:22:38 435.120 FM
SO-67 26 Jul 18:23:11 18:23:25 10° 63° (ENE) 18:23:40 435.3500 MHz FM
AO-7 26 Jul 18:48:19 18:52:59 16° 272° (W) 18:57:42 29.400 - 29.500 MHz
OPAL 26 Jul 18:56:53 19:00:27 20° 301° (WNW) 19:04:04 ?
Hamsat 26 Jul 19:12:23 19:16:01 29° 265° (W) 19:19:42 145.90 MHz
RS-15 26 Jul 19:19:51 19:28:21 25° 1° (N) 19:36:56 29.354 - 29.394 USB, Beacon 29.352 USB
STRAND 1 26 Jul 19:35:53 19:40:40 39° 98° (E) 19:45:24 ?
SO-67 26 Jul 19:52:36 19:56:01 56° 260° (W) 19:59:27 435.3500 MHz FM
JAS-2 26 Jul 19:57:32 20:04:17 31° 267° (W) 20:10:47 435.800 - 435.900 CW/SSB, 435.910 FM
SO-50 26 Jul 20:05:13 20:06:01 10° 26° (NNE) 20:06:50 436.795 FM
